Home > Weather > Raufoss > Past weeks

Flag for Norway Past Weather in Raufoss, Norway — Yesterday and Last 2 Weeks

Now
64 °F

Mild.


Feels Like: 64 °F
Forecast: 50 / 66 °F
Wind: 6 mph from Southeast

Location: Lillehammer-Saetherengen

Current Time: Aug 26, 2016 at 3:54:07 PM

Latest Report: Aug 26, 2016 at 3:00 PM


Visibility: N/A

Pressure: 29.58 "Hg

Humidity: 91%

Dew Point: 62 °F

Location of RaufossLocation

Past Weather in Raufoss — Graph

°F

Raufoss Temperature Yesterday

Maximum temperature yesterday: 67 °F (at 2:00 PM)
Minimum temperature yesterday: 56 °F (at 4:00 AM)
Average temperature yesterday: 61 °F

High & Low Weather Summary for the Past Weeks

 TemperatureHumidityPressure
High77 °F (Aug 17, 5:00 PM)96% (Aug 20, 6:00 AM)30.22 "Hg (Aug 20, 6:00 AM)
Low39 °F (Aug 12, 6:00 AM)21% (Aug 17, 5:00 PM)29.50 "Hg (Aug 12, 11:00 PM)
Average59 °F73%29.97 "Hg
* Reported Aug 11 2:00 PM — Aug 26 2:00 PM, Raufoss, Weather by CustomWeather, © 2016

Note: Actual official high and low records may vary slightly from our data, if they occured in-between our weather recording intervals... More about our weather records

Advertising

Raufoss Weather History for the Previous 24 Hours

Scroll right to see more
 ConditionsComfort  
Time TempWeatherWind HumidityBarometerVisibility
2:00 PM
Fri, Aug 26
63 °FMild.6 mph93%29.64 "HgN/A
1:00 PM62 °FCool.3 mph94%29.68 "HgN/A
12:00 PM60 °FCool.2 mph96%29.73 "HgN/A
11:00 AM59 °FCool.1 mph95%29.79 "HgN/A
10:00 AM58 °FCool.1 mph95%29.83 "HgN/A
9:00 AM58 °FCool.No wind95%29.87 "HgN/A
8:00 AM58 °FCool.No wind95%29.90 "HgN/A
7:00 AM58 °FCool.No wind95%29.93 "HgN/A
6:00 AM57 °FCool.1 mph94%29.95 "HgN/A
5:00 AM58 °FCool.1 mph94%29.97 "HgN/A
4:00 AM58 °FCool.No wind94%29.98 "HgN/A
3:00 AM58 °FCool.1 mph94%30.00 "HgN/A
2:00 AM58 °FCool.No wind94%30.00 "HgN/A
1:00 AM58 °FCool.1 mph94%30.01 "HgN/A
12:00 AM56 °FCool.1 mph93%30.01 "HgN/A
11:00 PM
Thu, Aug 25
58 °FCool.1 mph91%30.01 "HgN/A
10:00 PM59 °FCool.1 mph90%30.00 "HgN/A
9:00 PM62 °FCool.No wind84%30.00 "HgN/A
8:00 PM64 °FMild.1 mph79%30.00 "HgN/A
7:00 PM65 °FMild.3 mph75%29.98 "HgN/A
6:00 PM65 °FMild.1 mph74%30.00 "HgN/A
5:00 PM67 °FMild.1 mph68%30.00 "HgN/A
4:00 PM66 °FMild.1 mph67%30.02 "HgN/A
3:00 PM67 °FMild.2 mph61%30.02 "HgN/A
Weather by CustomWeather, © 2016

See weather overviewHow to use our weather pages